| time (UTC) | temp F | wind direction | speed MPH | gust MPH | rain 1hr in | rain 24hr in | rain mn in | humidity % | barometer mb |
| 20260505093905 | 59 | 150 | 0.0 | 2.0 | 0.00 | 0.00 | 0.00 | 69 | 1001.8 |
| 20260505092904 | 58 | 147 | 0.0 | 1.0 | 0.00 | 0.00 | 0.00 | 71 | 1001.9 |
| 20260505091904 | 57 | 145 | 0.0 | 1.0 | 0.00 | 0.00 | 0.00 | 71 | 1001.8 |
| 20260505090904 | 57 | 165 | 0.0 | 2.0 | 0.00 | 0.00 | 0.00 | 71 | 1001.7 |
| 20260505085904 | 58 | 0 | 0.0 | 1.0 | 0.00 | 0.00 | 0.00 | 70 | 1001.9 |
| 20260505084903 | 58 | 0 | 0.0 | 1.0 | 0.00 | 0.00 | 0.00 | 69 | 1001.8 |
| 20260505083904 | 58 | 238 | 0.0 | 2.0 | 0.00 | 0.00 | 0.00 | 68 | 1001.8 |
| 20260505082905 | 59 | 200 | 0.0 | 1.0 | 0.00 | 0.00 | 0.00 | 67 | 1001.8 |
| 20260505081905 | 60 | 0 | 0.0 | 1.0 | 0.00 | 0.00 | 0.00 | 65 | 1001.9 |
| 20260505080904 | 60 | 0 | 0.0 | 0.0 | 0.00 | 0.00 | 0.00 | 64 | 1001.9 |
| 20260505075904 | 61 | 290 | 0.0 | 2.0 | 0.00 | 0.00 | 0.00 | 64 | 1001.9 |
| 20260505074905 | 60 | 279 | 0.0 | 2.0 | 0.00 | 0.00 | 0.00 | 64 | 1001.9 |
| 20260505073906 | 60 | 179 | 0.0 | 2.0 | 0.00 | 0.00 | 0.00 | 64 | 1001.9 |
| 20260505072905 | 60 | 147 | 0.0 | 2.0 | 0.00 | 0.00 | 0.00 | 63 | 1001.8 |
| 20260505071912 | 60 | 174 | 0.0 | 4.0 | 0.00 | 0.00 | 0.00 | 63 | 1001.8 |
| 20260505070905 | 60 | 146 | 0.0 | 2.0 | 0.00 | 0.00 | 0.00 | 63 | 1001.9 |
| 20260505065905 | 60 | 167 | 0.0 | 1.0 | 0.00 | 0.00 | 0.00 | 62 | 1001.7 |
| 20260505064905 | 60 | 157 | 0.0 | 2.0 | 0.00 | 0.00 | 0.00 | 62 | 1001.5 |
| 20260505063905 | 60 | 223 | 0.0 | 2.0 | 0.00 | 0.00 | 0.00 | 62 | 1001.6 |
| 20260505062904 | 59 | 162 | 0.0 | 2.0 | 0.00 | 0.00 | 0.00 | 63 | 1001.7 |
| 20260505061905 | 59 | 158 | 0.0 | 1.0 | 0.00 | 0.00 | 0.00 | 63 | 1001.7 |
| 20260505060904 | 59 | 152 | 0.0 | 1.0 | 0.00 | 0.00 | 0.00 | 63 | 1001.9 |
| 20260505055904 | 59 | 152 | 0.0 | 1.0 | 0.00 | 0.00 | 0.00 | 63 | 1001.7 |
| 20260505054908 | 59 | 265 | 0.0 | 2.0 | 0.00 | 0.00 | 0.00 | 63 | 1001.8 |
| 20260505053905 | 59 | 163 | 0.0 | 1.0 | 0.00 | 0.00 | 0.00 | 63 | 1001.9 |
| 20260505052904 | 59 | 161 | 0.0 | 3.0 | 0.00 | 0.00 | 0.00 | 63 | 1001.9 |
| 20260505051904 | 58 | 155 | 0.0 | 1.0 | 0.00 | 0.00 | 0.00 | 64 | 1002.0 |
| 20260505050903 | 58 | 0 | 0.0 | 1.0 | 0.00 | 0.00 | 0.00 | 64 | 1002.0 |
| 20260505040904 | 59 | 0 | 0.0 | 0.0 | 0.00 | 0.00 | 0.00 | 58 | 1002.0 |
| 20260505035904 | 59 | 154 | 0.0 | 1.0 | 0.00 | 0.00 | 0.00 | 57 | 1002.0 |
| 20260505034904 | 59 | 153 | 0.0 | 1.0 | 0.00 | 0.00 | 0.00 | 55 | 1002.1 |
| 20260505033904 | 60 | 153 | 0.0 | 1.0 | 0.00 | 0.00 | 0.00 | 54 | 1002.0 |
| 20260505032905 | 60 | 174 | 0.0 | 2.0 | 0.00 | 0.00 | 0.00 | 52 | 1002.1 |
| 20260505031905 | 60 | 170 | 0.0 | 2.0 | 0.00 | 0.00 | 0.00 | 51 | 1002.1 |
| 20260505030905 | 61 | 174 | 0.0 | 1.0 | 0.00 | 0.00 | 0.00 | 50 | 1002.2 |
| 20260505025904 | 61 | 157 | 0.0 | 2.0 | 0.00 | 0.00 | 0.00 | 49 | 1002.3 |
| 20260505024903 | 61 | 163 | 0.0 | 3.0 | 0.00 | 0.00 | 0.00 | 48 | 1002.4 |
| 20260505023903 | 62 | 163 | 0.0 | 2.0 | 0.00 | 0.00 | 0.00 | 47 | 1002.3 |
| 20260505022903 | 62 | 160 | 0.0 | 1.0 | 0.00 | 0.00 | 0.00 | 46 | 1002.3 |
| 20260505021903 | 63 | 177 | 1.0 | 3.0 | 0.00 | 0.00 | 0.00 | 45 | 1002.4 |
| 20260505020903 | 63 | 191 | 0.0 | 3.0 | 0.00 | 0.00 | 0.00 | 44 | 1002.4 |
| 20260505015908 | 64 | 165 | 0.0 | 2.0 | 0.00 | 0.00 | 0.00 | 43 | 1002.3 |
| 20260505014957 | 64 | 169 | 0.0 | 3.0 | 0.00 | 0.00 | 0.00 | 42 | 1002.3 |
| 20260505014904 | 64 | 169 | 0.0 | 3.0 | 0.00 | 0.00 | 0.00 | 42 | 1002.3 |
| 20260505013903 | 64 | 183 | 1.0 | 4.0 | 0.00 | 0.00 | 0.00 | 42 | 1002.3 |
| 20260505012903 | 64 | 162 | 0.0 | 1.0 | 0.00 | 0.00 | 0.00 | 42 | 1002.2 |
| 20260505011904 | 65 | 161 | 0.0 | 1.0 | 0.00 | 0.00 | 0.00 | 41 | 1002.1 |
| 20260505010958 | 65 | 159 | 0.0 | 2.0 | 0.00 | 0.00 | 0.00 | 40 | 1002.0 |
| 20260505010904 | 65 | 159 | 0.0 | 2.0 | 0.00 | 0.00 | 0.00 | 40 | 1002.0 |
| 20260505005905 | 66 | 153 | 0.0 | 2.0 | 0.00 | 0.00 | 0.00 | 39 | 1001.8 |
| 20260505004905 | 66 | 166 | 0.0 | 2.0 | 0.00 | 0.00 | 0.00 | 39 | 1001.6 |
| 20260505003905 | 67 | 151 | 0.0 | 2.0 | 0.00 | 0.00 | 0.00 | 37 | 1001.6 |
| 20260505002905 | 67 | 155 | 0.0 | 1.0 | 0.00 | 0.00 | 0.00 | 36 | 1001.4 |
| 20260505001904 | 68 | 135 | 0.0 | 2.0 | 0.00 | 0.00 | 0.00 | 35 | 1001.4 |
| 20260505000906 | 68 | 238 | 1.0 | 5.0 | 0.00 | 0.00 | 0.00 | 35 | 1001.3 |
| 20260504235904 | 69 | 162 | 0.0 | 1.0 | 0.00 | 0.00 | 0.00 | 34 | 1001.4 |
| 20260504234903 | 70 | 151 | 0.0 | 2.0 | 0.00 | 0.00 | 0.00 | 32 | 1001.2 |
| 20260504233904 | 70 | 216 | 1.0 | 9.0 | 0.00 | 0.00 | 0.00 | 32 | 1001.2 |
| 20260504232904 | 71 | 216 | 2.0 | 6.0 | 0.00 | 0.00 | 0.00 | 31 | 1001.1 |
| 20260504231910 | 71 | 224 | 2.0 | 5.0 | 0.00 | 0.00 | 0.00 | 31 | 1001.0 |
| 20260504231333 | 72 | 221 | 1.0 | 5.0 | 0.00 | 0.00 | 0.00 | 30 | 1001.0 |
| 20260504230903 | 72 | 273 | 4.0 | 8.0 | 0.00 | 0.00 | 0.00 | 30 | 1001.0 |
| 20260504225903 | 72 | 213 | 0.0 | 2.0 | 0.00 | 0.00 | 0.00 | 30 | 1001.1 |
| 20260504224905 | 72 | 221 | 1.0 | 5.0 | 0.00 | 0.00 | 0.00 | 30 | 1001.0 |
| 20260504223903 | 73 | 237 | 2.0 | 11.0 | 0.00 | 0.00 | 0.00 | 29 | 1001.0 |
| 20260504222904 | 72 | 277 | 3.0 | 15.0 | 0.00 | 0.00 | 0.00 | 29 | 1001.1 |
| 20260504221903 | 73 | 224 | 2.0 | 11.0 | 0.00 | 0.00 | 0.00 | 29 | 1001.1 |
| 20260504220905 | 73 | 276 | 3.0 | 9.0 | 0.00 | 0.00 | 0.00 | 29 | 1001.1 |
| 20260504215906 | 74 | 248 | 4.0 | 10.0 | 0.00 | 0.00 | 0.00 | 28 | 1001.2 |
| 20260504214905 | 74 | 212 | 1.0 | 4.0 | 0.00 | 0.00 | 0.00 | 28 | 1001.3 |
| 20260504213905 | 73 | 212 | 1.0 | 8.0 | 0.00 | 0.00 | 0.00 | 28 | 1001.3 |
| 20260504213734 | 74 | 252 | 1.0 | 6.0 | 0.00 | 0.00 | 0.00 | 28 | 1001.3 |
| 20260504212906 | 74 | 287 | 3.0 | 8.0 | 0.00 | 0.00 | 0.00 | 28 | 1001.4 |
| 20260504211905 | 74 | 252 | 1.0 | 6.0 | 0.00 | 0.00 | 0.00 | 28 | 1001.3 |
| 20260504210905 | 73 | 266 | 4.0 | 10.0 | 0.00 | 0.00 | 0.00 | 28 | 1001.4 |
| 20260504210530 | 73 | 247 | 2.0 | 6.0 | 0.00 | 0.00 | 0.00 | 28 | 1001.5 |
| 20260504205904 | 73 | 267 | 4.0 | 11.0 | 0.00 | 0.00 | 0.00 | 27 | 1001.4 |
| 20260504204938 | 74 | 258 | 3.0 | 8.0 | 0.00 | 0.00 | 0.00 | 27 | 1001.4 |
| 20260504204905 | 74 | 258 | 3.0 | 8.0 | 0.00 | 0.00 | 0.00 | 27 | 1001.4 |
| 20260504203904 | 73 | 247 | 2.0 | 6.0 | 0.00 | 0.00 | 0.00 | 28 | 1001.5 |
| 20260504202904 | 74 | 267 | 3.0 | 12.0 | 0.00 | 0.00 | 0.00 | 27 | 1001.4 |
| 20260504201903 | 73 | 176 | 2.0 | 5.0 | 0.00 | 0.00 | 0.00 | 27 | 1001.3 |
| 20260504200904 | 73 | 295 | 3.0 | 12.0 | 0.00 | 0.00 | 0.00 | 27 | 1001.6 |
| 20260504195904 | 73 | 275 | 4.0 | 12.0 | 0.00 | 0.00 | 0.00 | 27 | 1001.6 |
| 20260504194904 | 72 | 274 | 5.0 | 11.0 | 0.00 | 0.00 | 0.00 | 27 | 1001.6 |
| 20260504193903 | 73 | 286 | 3.0 | 8.0 | 0.00 | 0.00 | 0.00 | 27 | 1001.7 |
| 20260504192909 | 73 | 249 | 2.0 | 6.0 | 0.00 | 0.00 | 0.00 | 27 | 1001.8 |
| 20260504191905 | 73 | 260 | 3.0 | 11.0 | 0.00 | 0.00 | 0.00 | 27 | 1001.9 |
| 20260504190905 | 72 | 249 | 4.0 | 9.0 | 0.00 | 0.00 | 0.00 | 27 | 1002.0 |
| 20260504185905 | 72 | 211 | 2.0 | 9.0 | 0.00 | 0.00 | 0.00 | 27 | 1002.0 |
| 20260504184904 | 72 | 211 | 2.0 | 9.0 | 0.00 | 0.00 | 0.00 | 27 | 1002.5 |
| 20260504183905 | 72 | 254 | 3.0 | 8.0 | 0.00 | 0.00 | 0.00 | 27 | 1002.4 |
| 20260504182905 | 71 | 274 | 3.0 | 11.0 | 0.00 | 0.00 | 0.00 | 27 | 1002.6 |
| 20260504181905 | 72 | 280 | 4.0 | 11.0 | 0.00 | 0.00 | 0.00 | 27 | 1002.8 |
| 20260504180904 | 72 | 194 | 1.0 | 5.0 | 0.00 | 0.00 | 0.00 | 28 | 1002.8 |
| 20260504175904 | 71 | 277 | 3.0 | 10.0 | 0.00 | 0.00 | 0.00 | 27 | 1003.0 |
| 20260504174906 | 70 | 244 | 5.0 | 13.0 | 0.00 | 0.00 | 0.00 | 27 | 1003.2 |
| 20260504173903 | 70 | 285 | 4.0 | 13.0 | 0.00 | 0.00 | 0.00 | 28 | 1003.2 |
| 20260504172906 | 70 | 231 | 3.0 | 9.0 | 0.00 | 0.00 | 0.00 | 29 | 1003.4 |
| 20260504171904 | 69 | 270 | 2.0 | 14.0 | 0.00 | 0.00 | 0.00 | 30 | 1003.5 |
| 20260504170907 | 69 | 254 | 2.0 | 11.0 | 0.00 | 0.00 | 0.00 | 31 | 1003.6 |
| 20260504150904 | 65 | 235 | 2.0 | 13.0 | 0.00 | 0.00 | 0.00 | 38 | 1005.0 |
| 20260504140904 | 61 | 171 | 1.0 | 9.0 | 0.00 | 0.00 | 0.00 | 49 | 1005.3 |